Location: Keston
(51.3500°N, 0.0333°E)
Time: 18:12:36
(UTC+00:00)

Daily predictions for brighter satellites

Satellite Brightness Start Highest point End
(mag) Time Altitude Azimuth Time Altitude Azimuth Time Altitude Azimuth
FALCON 9 DEB 3.8 21:02:52 10° SSW 21:05:46 30° SE 21:08:41 10° E
SL-8 R/B 3.9 21:02:40 10° WSW 21:07:18 50° SSE 21:11:58 10° E
Terra 2.2 21:03:36 10° SE 21:08:13 52° ENE 21:12:51 10° N
Cosmos 1980 Rocket 4.5 21:05:07 10° N 21:08:43 17° NNE 21:12:16 10° ENE
USA 267 3.6 21:03:50 10° ENE 21:09:57 40° SE 21:16:02 10° SSW
Cosmos 1455 3.0 21:07:20 10° N 21:10:53 36° ENE 21:14:26 10° SE
Cosmos 2369 Rocket 3.9 21:07:13 10° NW 21:11:54 28° WSW 21:16:34 10° SSW
Meteor 1-24 Rocket 4.0 21:07:58 10° SSE 21:13:02 48° E 21:18:11 10° NNE
Cosmos 1697 Rocket 4.5 21:09:22 10° NNW 21:13:52 24° NE 21:18:21 10° E
Cosmos 2315 Rocket 4.2 21:08:01 10° S 21:14:15 63° E 21:20:29 10° NNE
NOSS 2-1 (C) 4.3 21:11:34 10° NW 21:15:35 53° NE 21:21:08 10° ESE
Cosmos 1371 Rocket 4.4 21:13:49 10° S 21:18:43 43° ESE 21:23:42 10° NE
Spot 2 Rocket 3.6 21:16:17 10° SSE 21:21:23 87° WSW 21:26:32 10° NNW
NOSS 2-1 (D) 4.2 21:21:52 10° NW 21:25:59 61° NE 21:31:42 10° ESE
CZ-4B R/B 3.2 21:23:44 10° N 21:26:18 28° WNW 21:28:51 10° SW
Lacrosse 5 rocket 1.2 21:23:41 10° WNW 21:27:31 90° SW 21:31:34 10° ESE
Cosmos 1709 Rocket 4.2 21:21:48 10° NNW 21:27:57 77° W 21:34:10 10° S
ARIANE 5 R/B 2.9 21:23:45 10° SSE 21:28:09 59° ENE 21:32:33 10° N
SPOT 3 Rocket 4.2 21:24:17 10° S 21:29:20 53° W 21:34:27 10° NNW
Cosmos 2074 Rocket 4.4 21:30:01 10° N 21:36:11 53° ENE 21:42:02 11° SSE
ATLAS 2AS CENTAUR R/B 2.8 21:30:57 10° NW 21:38:14 85° NE 21:44:51 11° SE
Cosmos 1624 Rocket 4.1 21:35:18 10° S 21:40:27 59° ESE 21:45:35 10° NNE
Cosmos 1656 4.2 21:36:18 10° NNW 21:41:38 51° NE 21:46:54 10° SE
Cosmos 1190 Rocket 4.4 21:37:10 10° NNW 21:42:26 63° WSW 21:47:39 10° S
ASTRO F (AKARI) 4.5 21:42:15 12° SSE 21:45:26 83° ENE 21:49:00 10° NNW
USA 234 3.3 21:39:28 10° ESE 21:46:03 83° SSW 21:52:39 10° WNW
Cosmos 1833 Rocket 4.4 21:44:37 11° SE 21:47:38 16° E 21:50:51 10° ENE
Cosmos 1455 Rocket 4.1 21:45:33 10° NNW 21:49:42 43° W 21:53:48 10° SSW
Cosmos 2154 Rocket 4.4 21:49:24 10° N 21:55:32 53° ENE 22:00:52 14° SSE
SPOT 5 3.6 21:52:39 10° S 21:56:56 42° W 22:01:07 10° NNW
Cosmos 1271 Rocket 2.9 21:53:46 10° NNW 21:57:45 73° W 22:01:15 13° S
Cosmos 2056 Rocket 3.6 21:54:45 10° SSW 22:00:07 83° ESE 22:05:36 10° NNE
Meteor 2-5 Rocket 4.1 21:56:44 10° SSW 22:02:14 65° WNW 22:07:46 10° N
Cosmos 1025 Rocket 3.7 21:59:00 10° SSW 22:03:10 53° WNW 22:07:23 10° N
Cosmos 2344 4.4 21:58:27 10° NW 22:06:45 66° NE 22:18:05 10° ESE
Cosmos 676 Rocket 4.3 22:03:39 10° NNW 22:08:56 62° WSW 22:13:24 14° S
ERS-1 Rocket 4.0 22:05:07 10° SSW 22:09:52 41° W 22:14:38 10° NNW
USA 32 4.5 22:05:57 10° SSW 22:11:08 62° W 22:16:21 10° N
Cosmos 1420 Rocket 4.0 22:07:09 10° SSW 22:12:23 85° ESE 22:17:43 10° NNE
Cosmos 1536 Rocket 3.5 22:13:47 13° S 22:17:38 80° E 22:21:59 10° NNE
Cosmos 1607 3.9 22:11:26 10° SSW 22:17:38 75° SE 22:23:49 10° NE
CZ-2C R/B 4.3 22:13:31 10° N 22:18:06 58° WNW 22:22:34 10° SSW
Lacrosse 5 2.0 22:18:53 10° WNW 22:23:58 64° SW 22:27:56 16° SE
Cosmos 1606 Rocket 3.9 22:20:12 10° N 22:24:27 55° ENE 22:27:26 19° SSE
NOSS 2-1 (E) 4.1 22:20:10 10° NW 22:24:36 66° SW 22:29:25 17° SSE
SAR-Lupe-4 3.5 22:23:08 10° NNE 22:26:43 73° ESE 22:29:20 17° S
Cosmos 2184 Rocket 4.1 22:22:24 10° NNW 22:28:33 74° W 22:33:50 15° S
Cosmos 724 4.3 22:25:26 10° SSW 22:31:06 58° ESE 22:36:47 10° NE
Tiangong 3.5 22:32:10 10° SW 22:32:27 11° SSW 22:32:27 11° SSW
Cosmos 1850 Rocket 4.0 22:30:01 10° NNW 22:35:17 87° WSW 22:39:02 19° SSE
Lacrosse 4 Rocket 4.4 22:33:38 10° W 22:36:38 19° NW 22:39:37 10° NNE
Cosmos 2228 3.0 22:34:00 10° NNW 22:38:16 75° W 22:41:10 20° S
Cosmos 1328 4.3 22:37:11 21° SSE 22:39:33 46° E 22:43:25 10° NNE
Meteor 1-21 Rocket 4.2 22:35:48 16° S 22:40:11 68° E 22:45:49 10° NNE
Cosmos 2341 Rocket 4.4 22:34:02 10° N 22:40:17 55° ENE 22:45:04 17° SSE
Cosmos 1703 3.3 22:38:48 16° SSW 22:41:48 77° W 22:45:41 10° N
FALCON 9 DEB 3.0 22:38:34 10° WSW 22:41:50 82° NNW 22:45:08 10° ENE
SAR-Lupe-1 4.3 22:38:41 10° N 22:42:15 66° WNW 22:45:12 14° SSW
Cosmos 1408 3.9 22:43:33 19° SE 22:44:55 24° E 22:47:46 10° NE
Cosmos 1455 4.2 22:43:14 10° NW 22:46:08 21° W 22:49:02 10° SW
Terra 3.6 22:42:25 10° SW 22:46:15 24° W 22:50:07 10° NW
Cosmos 1825 4.3 22:46:54 12° ESE 22:48:30 15° E 22:50:39 10° NE
SL-8 R/B 3.7 22:44:48 10° W 22:49:34 62° S 22:54:20 10° ESE
ALOS 2 3.2 22:46:37 18° SE 22:49:36 48° ENE 22:53:50 10° N
Cosmos 1726 Rocket 3.5 22:46:35 10° N 22:50:56 77° E 22:53:36 23° SSE
USA 267 3.3 22:46:49 10° ENE 22:53:24 86° NNW 22:59:57 10° WSW
Cosmos 1980 Rocket 2.9 22:48:35 10° NNW 22:54:08 50° NE 22:59:14 12° SE
RESURS DK-1 2.3 22:52:27 10° NNW 22:56:36 81° WSW 22:59:03 24° SSE
Cosmos 1697 Rocket 2.7 22:52:59 10° NNW 22:58:39 88° ENE 23:02:42 20° SSE
Cosmos 1331 Rocket 4.2 22:57:22 20° S 23:00:57 57° ESE 23:06:10 10° NNE
Cosmos 1452 Rocket 3.5 22:57:19 13° SSW 23:02:04 89° WNW 23:07:22 10° NNE
Lacrosse 5 rocket 2.9 23:03:13 10° W 23:06:09 20° SW 23:07:17 18° SSW
Spot 4 3.9 23:04:25 22° S 23:07:30 78° WSW 23:12:19 10° NNW
ASTEX 1 3.6 23:02:50 10° N 23:07:50 71° W 23:11:36 18° SSW
ERS-2 3.6 23:05:15 10° NE 23:08:12 23° E 23:09:26 19° SE
Cosmos 1892 3.4 23:06:34 25° SE 23:08:13 39° E 23:11:44 10° NNE
USA 276 3.5 23:10:14 21° ESE 23:10:14 21° ESE 23:11:34 10° E
Cosmos 2084 Rocket 4.1 23:05:30 10° NW 23:09:15 46° NE 23:13:07 10° ESE
Cosmos 2084 3.6 23:05:29 10° SW 23:09:18 65° NW 23:13:11 10° NE
ADEOS Rocket 3.5 23:05:35 18° SSE 23:10:59 76° ENE 23:18:36 10° NNW
Cosmos 2058 Rocket 3.1 23:09:45 10° N 23:14:10 79° E 23:16:43 25° SSE
Cosmos 1110 Rocket 4.0 23:15:12 18° SSW 23:19:11 83° ESE 23:24:32 10° NNE
Cosmos 2181 Rocket 4.2 23:15:18 21° SSE 23:19:22 57° E 23:25:25 10° NNE
GP-B 3.3 23:15:50 10° N 23:20:15 65° W 23:23:05 21° SSW
Cosmos 2360 4.3 23:15:36 10° NW 23:21:18 68° WSW 23:25:00 22° SSE
Cosmos 2278 4.5 23:16:35 10° NNW 23:22:10 50° NE 23:27:31 11° SE
Cosmos 2322 Rocket 4.2 23:18:17 10° NNW 23:22:54 25° NE 23:27:29 10° E
Cosmos 1302 Rocket 4.5 23:21:10 23° SSE 23:24:01 45° ESE 23:28:59 10° NE
Cosmos 1892 Rocket 3.5 23:22:22 23° SSW 23:25:06 86° WNW 23:29:32 10° N
ATLAS 2AS CENTAUR R/B 3.9 23:22:41 10° WNW 23:28:23 27° WSW 23:32:16 16° SSW
USA 234 4.1 23:26:12 20° S 23:29:41 32° SW 23:35:27 10° WNW
Cosmos 1833 Rocket 2.6 23:26:17 17° SSW 23:30:41 83° ESE 23:36:21 10° NNE
BREEZE-M DEB (TANK) 3.6 23:36:02 10° W 23:39:16 72° S 23:51:25 10° ESE
Okean 1-7 Rocket 3.8 23:39:49 26° SSE 23:42:08 61° E 23:46:33 10° NNE
Cosmos 1626 Rocket 3.8 23:42:03 26° SSE 23:44:14 54° E 23:48:28 10° NNE
Cosmos 2082 Rocket 2.6 23:41:32 23° S 23:44:51 50° ESE 23:50:21 10° NE
Cosmos 1821 Rocket 4.4 23:40:05 10° N 23:46:20 59° ENE 23:50:56 18° SSE
Meteor 1-27 4.2 23:42:11 10° NNW 23:47:48 86° W 23:51:21 23° S
Cosmos 1869 3.1 23:45:12 10° N 23:49:05 88° E 23:50:55 30° S
ATLAS 5 CENTAUR R/B 3.5 23:51:04 11° ESE 23:51:32 11° ESE 23:52:47 10° E
Cosmos-2242 3.6 23:50:45 10° N 23:54:53 48° ENE 23:57:29 21° SE
BREEZE-M DEB (TANK) 3.8 23:46:54 10° SW 23:56:14 46° SSE 23:59:29 10° E
